Location: Kings Park
(40.8862°N, 73.2573°W)
Time: 04:59:24
(UTC+00:00)

BREEZE-M R/B - Pass Details

Date: 29 October 2020
Orbit: 309 x 4522 km, 49.7° (Epoch: 27 November)

Event Time Altitude Azimuth Distance (km) Brightness Sun altitude
Rises 22:18:22 0° 296° (WNW) 2,314 6.9 -5.6°
Reaches altitude 10° 22:20:12 10° 311° (NW) 1,655 5.8 -6.0°
Maximum altitude 22:23:21 28° 13° (NNE) 1,255 4.4 -6.5°
Drops below altitude 10° 22:28:43 10° 71° (ENE) 2,931 5.8 -7.5°
Enters shadow 22:29:14 - 72° (ENE) 3,131 6.0 -7.6°
